sat.trackr.live / text

‹ back to catalog

STARLINK-32555

NORAD 61918 · 2024-207G

PAYLOAD ACTIVE UNKNOWN

§ Identity

Operator
Country
US
Launch date
2024-11-11
Launch site
AFETR
Launch vehicle
Mass (kg)
RCS (m²)

Purposes: comms

External: N2YO · Heavens-Above · Gunter

§ Orbital elements

Epoch: 2026-05-24T21:46:03.410688Z

Period
94.27 min
Inclination
43.0022°
Eccentricity
0.0003431
Mean motion
15.27597736 rev/d
Perigee alt
480.6 km
Apogee alt
485.4 km
Semi-major
6,861.1 km
B*
4.7898e-4
RAAN
215.1890°
Arg perigee
268.1297°
Mean anomaly
91.9161°
Rev number
8,633

§ Raw data

STARLINK-325551 61918U 24207G   26144.90698392  .00012950  00000+0  47898-3 0  99982 61918  43.0022 215.1890 0003431 268.1297  91.9161 15.27597736 86339

JSON: /api/v1/satellites/61918 · /tle

For live sub-satellite position, see the globe view (requires WebGL).

§ Visibility from observer

Set your observer location to see the next 7 days of passes ≥ 10°. The values pass through the URL so the page stays shareable.

No JS? Fill the form by hand. The geolocation button needs JavaScript.